Morrisville, VT

10:11 PM EST on November 11, 2019 (GMT -0500)
Morrisville Stowe State

Weather History for KMVL - September, 2019

Change the Weather History Date:

Monday, September 2, 2019

  Actual Average Record
Temperature  
Mean Temperature 60 °F 62 °F  
Max Temperature 66 °F 75 °F 90 °F (2010)
Min Temperature 54 °F 50 °F 33 °F (2017)
Degree Days  
Heating Degree Days 5 4  
Month to date heating degree days 11 8  
Since 1 July heating degree days 76 103  
Cooling Degree Days 0 1  
Month to date cooling degree days 0 2  
Year to date cooling degree days 243 249  
Growing Degree Days 10 (Base 50)    
Moisture  
Dew Point 59 °F    
Average Humidity 94    
Maximum Humidity 100    
Minimum Humidity 84    
Precipitation  
Precipitation 1.07 in 0.09 in 1.38 in (2014)
Month to date precipitation 1.08 0.18  
Year to date precipitation 28.31 23.94  
Sea Level Pressure  
Sea Level Pressure 30.00 in    
Wind  
Wind Speed 3 mph ()    
Max Wind Speed 12 mph    
Max Gust Speed 15 mph    
Visibility 6.8 miles    
Events Fog , Rain    
T = Trace of Precipitation, MM = Missing Value Source: Averaged Metar Reports

Daily Weather History Graph

Daily Weather History Graph

Search for Another Location

Airport or City:

Astronomy

Sep. 02, 2019 Rise Set
Actual Time 6:13 AM EDT 7:25 PM EDT
Civil Twilight 5:43 AM EDT 7:55 PM EDT
Nautical Twilight 5:07 AM EDT 8:31 PM EDT
Astronomical Twilight 4:29 AM EDT 9:09 PM EDT
Moon 10:00 AM EDT (9/2) 9:36 PM EDT (9/2)
Length of Visible Light 14h 11m
Length of Day
13h 11m
Waxing Crescent, 15% of the Moon is Illuminated
Sep 2
Waxing Crescent
Sep 5
First Quarter
Sep 14
Full
Sep 21
Last Quarter
Sep 28
New

Hourly Weather History & Observations

Time (EDT) Temp. Dew Point Humidity Pressure Visibility Wind Dir Wind Speed Gust Speed Precip Events Conditions
12:54 AM 60.1 °F 57.9 °F 93% 30.18 in 9.0 mi Calm Calm - 0.02 in Rain Light Rain
1:54 AM 59.0 °F 57.9 °F 96% 30.16 in 8.0 mi Calm Calm - 0.09 in Rain Light Rain
2:54 AM 59.0 °F 57.0 °F 93% 30.13 in 8.0 mi Calm Calm - 0.05 in Rain Light Rain
3:54 AM 59.0 °F 57.9 °F 96% 30.11 in 6.0 mi Calm Calm - 0.10 in Rain Rain
4:54 AM 60.1 °F 57.9 °F 93% 30.09 in 10.0 mi Calm Calm - 0.11 in Rain Light Rain
5:01 AM 59.0 °F 57.9 °F 96% 30.09 in 10.0 mi SSE 3.5 mph - 0.01 in Rain Light Rain
5:16 AM 60.1 °F 57.9 °F 93% 30.08 in 9.0 mi SSE 5.8 mph - 0.03 in Rain Light Rain
5:54 AM 60.1 °F 57.9 °F 93% 30.07 in 10.0 mi Calm Calm - 0.08 in Rain Light Rain
6:31 AM 60.1 °F 57.9 °F 93% 30.05 in 10.0 mi South 4.6 mph - 0.01 in Rain Light Rain
6:54 AM 60.1 °F 57.9 °F 93% 30.06 in 10.0 mi Calm Calm - 0.02 in Rain Light Rain
7:10 AM 60.1 °F 57.9 °F 93% 30.05 in 10.0 mi Calm Calm - 0.01 in Rain Light Rain
7:54 AM 60.1 °F 57.9 °F 93% 30.06 in 10.0 mi South 3.5 mph - 0.02 in Rain Light Rain
8:54 AM 60.1 °F 57.9 °F 93% 30.03 in 8.0 mi Variable 3.5 mph - 0.04 in Rain Light Rain
9:21 AM 60.1 °F 59.0 °F 96% 30.03 in 2.0 mi SSW 4.6 mph - 0.06 in Rain Rain
9:30 AM 60.1 °F 57.9 °F 93% 30.03 in 6.0 mi South 6.9 mph - 0.07 in Rain Light Rain
9:54 AM 60.1 °F 57.9 °F 93% 30.03 in 9.0 mi SSW 4.6 mph - 0.10 in Rain Light Rain
10:24 AM 61.0 °F 59.0 °F 93% 30.02 in 10.0 mi SSW 4.6 mph - 0.01 in Rain Light Rain
10:54 AM 62.1 °F 60.1 °F 93% 30.01 in 10.0 mi SSW 4.6 mph - 0.01 in Rain Light Rain
11:54 AM 63.0 °F 61.0 °F 93% 29.99 in 10.0 mi South 8.1 mph - 0.02 in Rain Light Rain
12:45 PM 64.0 °F 61.0 °F 90% 29.97 in 10.0 mi SSE 8.1 mph - 0.02 in Rain Light Rain
12:54 PM 63.0 °F 61.0 °F 93% 29.97 in 7.0 mi South 10.4 mph - 0.04 in Rain Light Rain
1:16 PM 63.0 °F 61.0 °F 93% 29.97 in 10.0 mi SSW 5.8 mph - 0.01 in Rain Light Rain
1:43 PM 63.0 °F 61.0 °F 93% 29.96 in 7.0 mi SSW 4.6 mph - 0.04 in Rain Light Rain
1:52 PM 62.6 °F 60.8 °F 94% 29.96 in 8.0 mi SW 4.6 mph - 0.05 in Rain Rain
1:54 PM 63.0 °F 61.0 °F 93% 29.96 in 8.0 mi SW 4.6 mph - 0.06 in Rain Light Rain
2:14 PM 63.0 °F 61.0 °F 93% 29.95 in 10.0 mi SSW 4.6 mph - 0.02 in Rain Light Rain
2:45 PM 63.0 °F 61.0 °F 93% 29.94 in 10.0 mi South 3.5 mph - 0.03 in   Overcast
2:54 PM 64.0 °F 62.1 °F 93% 29.94 in 10.0 mi SE 3.5 mph - 0.03 in   Overcast
3:23 PM 64.0 °F 62.1 °F 93% 29.93 in 10.0 mi Calm Calm - 0.00 in Rain Light Rain
3:39 PM 64.0 °F 61.0 °F 90% 29.93 in 10.0 mi Calm Calm - 0.00 in Rain Light Rain
3:54 PM 64.9 °F 61.0 °F 87% 29.93 in 10.0 mi Calm Calm - 0.00 in   Overcast
4:03 PM 64.9 °F 62.1 °F 90% 29.93 in 10.0 mi SW 3.5 mph - N/A   Overcast
4:20 PM 64.9 °F 62.1 °F 90% 29.92 in 10.0 mi Calm Calm - 0.01 in   Overcast
4:31 PM 64.9 °F 63.0 °F 93% 29.92 in 10.0 mi Variable 3.5 mph - 0.01 in   Overcast
4:54 PM 64.9 °F 63.0 °F 93% 29.92 in 9.0 mi SSW 4.6 mph - 0.01 in Rain Light Rain
5:34 PM 64.9 °F 63.0 °F 93% 29.91 in 10.0 mi Calm Calm - 0.00 in Rain Light Rain
5:42 PM 64.9 °F 63.0 °F 93% 29.92 in 7.0 mi Calm Calm - 0.01 in Rain Light Rain
5:51 PM 64.4 °F 62.6 °F 94% 29.93 in 5.0 mi NW 4.6 mph - 0.03 in Rain Rain
5:54 PM 64.0 °F 62.1 °F 93% 29.93 in 1.8 mi NW 8.1 mph - 0.10 in Rain Light Rain
6:00 PM 64.0 °F 62.1 °F 93% 29.94 in 0.8 mi WNW 9.2 mph - 0.09 in Rain Heavy Rain
6:05 PM 64.0 °F 61.0 °F 90% 29.94 in 1.2 mi NW 8.1 mph - 0.11 in Rain Rain
6:08 PM 64.0 °F 61.0 °F 90% 29.94 in 2.0 mi NNW 8.1 mph - 0.12 in Rain Rain
6:25 PM 63.0 °F 61.0 °F 93% 29.94 in 6.0 mi North 8.1 mph - 0.17 in Rain Light Rain
6:54 PM 63.0 °F 61.0 °F 93% 29.96 in 10.0 mi Calm Calm - 0.17 in   Overcast
7:54 PM 62.1 °F 57.9 °F 86% 29.97 in 10.0 mi NNW 4.6 mph - N/A   Mostly Cloudy
8:54 PM 59.0 °F 57.0 °F 93% 30.00 in 10.0 mi Calm Calm - N/A   Scattered Clouds
9:20 PM 57.0 °F 55.9 °F 96% 29.99 in 2.5 mi Calm Calm - N/A   Partly Cloudy
9:23 PM 57.0 °F 55.9 °F 96% 29.99 in 1.0 mi Calm Calm - N/A   Mist
9:30 PM 55.9 °F 55.0 °F 97% 29.99 in 0.5 mi Calm Calm - N/A Fog Fog
9:52 PM 55.4 °F 55.4 °F 100% 29.99 in 1.2 mi Calm Calm - N/A   Mostly Cloudy
9:54 PM 55.9 °F 55.0 °F 97% 30.00 in 1.8 mi Calm Calm - N/A   Mostly Cloudy
10:05 PM 55.0 °F 54.0 °F 96% 30.00 in 0.8 mi South 3.5 mph - N/A   Mist
10:54 PM 55.0 °F 54.0 °F 96% 30.00 in 0.5 mi South 4.6 mph - N/A Fog Fog
11:02 PM 55.0 °F 55.0 °F 100% 30.00 in 1.2 mi South 4.6 mph - N/A   Overcast
11:08 PM 55.0 °F 55.0 °F 100% 30.00 in 0.8 mi South 3.5 mph - N/A   Mist
11:45 PM 55.0 °F 55.0 °F 100% 30.01 in 1.2 mi Calm Calm - N/A   Overcast
11:54 PM 55.0 °F 55.0 °F 100% 30.01 in 1.0 mi Calm Calm - N/A   Mist